Total_Precipitation_Accumulation
0.46 0.46 0.40 0.36 0.34 0.31 0.27 0.24 0.22 0.20 0.20 0.19 0.18 0.16 0.16 0.15 0.13 0.12 0.11 0.09 0.08 0.09 0.13 0.17 0.19 0.20 0.24 0.25 0.28 0.28 0.28 0.26 0.24 0.24 0.24 0.24 0.24 0.24 0.25 0.26 0.27 0.28 0.30
0.58 0.56 0.52 0.46 0.44 0.45 0.40 0.33 0.27 0.24 0.22 0.21 0.19 0.18 0.18 0.17 0.15 0.12 0.09 0.08 0.07 0.06 0.08 0.15 0.22 0.27 0.30 0.34 0.38 0.40 0.37 0.32 0.31 0.30 0.30 0.30 0.29 0.29 0.29 0.30 0.30 0.31 0.32
0.71 0.68 0.62 0.55 0.50 0.52 0.51 0.47 0.40 0.34 0.30 0.26 0.22 0.19 0.18 0.18 0.17 0.15 0.13 0.11 0.08 0.07 0.08 0.12 0.22 0.29 0.32 0.36 0.41 0.45 0.46 0.41 0.36 0.34 0.34 0.34 0.34 0.32 0.33 0.35 0.35 0.36 0.37
0.78 0.77 0.71 0.65 0.63 0.61 0.58 0.52 0.47 0.42 0.39 0.37 0.33 0.28 0.24 0.19 0.16 0.15 0.15 0.16 0.15 0.12 0.11 0.12 0.16 0.22 0.28 0.34 0.42 0.52 0.58 0.53 0.45 0.40 0.38 0.39 0.40 0.40 0.41 0.43 0.43 0.43 0.43
0.87 0.85 0.75 0.68 0.74 0.74 0.67 0.63 0.54 0.48 0.40 0.35 0.33 0.31 0.29 0.27 0.23 0.20 0.17 0.15 0.14 0.14 0.14 0.14 0.15 0.17 0.20 0.26 0.37 0.52 0.62 0.64 0.57 0.50 0.47 0.46 0.47 0.49 0.52 0.55 0.55 0.56 0.58
0.94 0.95 0.88 0.79 0.80 0.82 0.76 0.69 0.62 0.54 0.45 0.43 0.40 0.34 0.31 0.31 0.28 0.25 0.24 0.21 0.18 0.16 0.15 0.13 0.13 0.14 0.16 0.21 0.28 0.38 0.51 0.61 0.64 0.60 0.58 0.57 0.57 0.59 0.64 0.69 0.71 0.73 0.77
0.99 1.01 0.98 0.91 0.87 0.81 0.77 0.73 0.70 0.66 0.58 0.52 0.48 0.37 0.28 0.26 0.26 0.23 0.22 0.22 0.22 0.21 0.20 0.18 0.17 0.17 0.17 0.19 0.20 0.25 0.33 0.45 0.57 0.65 0.65 0.64 0.66 0.70 0.75 0.81 0.86 0.88 0.93
1.12 1.02 1.01 1.04 1.01 0.93 0.85 0.81 0.79 0.75 0.70 0.68 0.64 0.59 0.42 0.29 0.24 0.23 0.20 0.19 0.20 0.22 0.24 0.25 0.24 0.24 0.23 0.22 0.20 0.21 0.22 0.31 0.47 0.67 0.76 0.77 0.79 0.81 0.88 0.96 1.03 1.08 1.16
1.27 1.14 1.06 1.12 1.13 1.09 1.03 1.02 1.03 1.00 0.92 0.88 0.82 0.85 0.68 0.43 0.30 0.26 0.26 0.25 0.24 0.23 0.24 0.25 0.26 0.26 0.26 0.26 0.24 0.24 0.28 0.32 0.43 0.63 0.83 0.95 0.98 1.00 1.06 1.13 1.22 1.31 1.34
1.34 1.32 1.24 1.19 1.18 1.17 1.11 1.14 1.22 1.25 1.22 1.11 1.00 0.90 0.81 0.66 0.58 0.41 0.30 0.29 0.30 0.27 0.27 0.27 0.28 0.28 0.27 0.27 0.29 0.33 0.39 0.45 0.55 0.73 0.96 1.13 1.24 1.35 1.46 1.54 1.60 1.66 1.61
1.34 1.32 1.28 1.23 1.16 1.16 1.18 1.18 1.20 1.26 1.27 1.20 1.09 1.01 0.96 0.82 0.69 0.62 0.42 0.30 0.31 0.31 0.30 0.28 0.28 0.28 0.30 0.31 0.35 0.43 0.54 0.61 0.71 0.87 1.15 1.40 1.56 1.73 1.91 2.05 2.11 2.13 2.04
1.28 1.25 1.24 1.21 1.14 1.09 1.10 1.17 1.22 1.26 1.27 1.22 1.14 1.03 0.97 0.90 0.78 0.75 0.66 0.47 0.42 0.37 0.34 0.33 0.32 0.33 0.36 0.41 0.49 0.61 0.67 0.72 0.83 1.00 1.32 1.56 1.72 1.88 1.99 2.10 2.19 2.21 2.20
1.17 1.10 1.09 1.10 1.10 1.07 1.08 1.14 1.18 1.17 1.20 1.19 1.14 1.05 0.98 0.88 0.83 0.87 0.88 0.74 0.61 0.48 0.42 0.40 0.42 0.47 0.53 0.59 0.64 0.75 0.75 0.77 0.85 0.97 1.21 1.46 1.55 1.62 1.74 1.92 2.12 2.20 2.21
1.23 1.18 1.14 1.13 1.15 1.15 1.12 1.11 1.10 1.08 1.09 1.11 1.10 1.07 1.02 0.93 0.89 0.92 0.98 1.06 1.01 0.80 0.67 0.61 0.60 0.65 0.69 0.73 0.79 0.86 0.77 0.84 0.84 0.87 1.00 1.17 1.23 1.23 1.27 1.41 1.63 1.79 1.91
1.17 1.14 1.18 1.18 1.17 1.18 1.17 1.14 1.10 1.02 0.99 0.98 0.98 0.99 0.96 0.91 0.92 0.97 1.06 1.20 1.36 1.27 1.00 0.80 0.78 0.80 0.83 0.83 0.87 0.78 0.68 0.79 0.81 0.80 0.84 0.91 0.94 0.92 0.92 1.04 1.16 1.26 1.36
1.04 1.02 1.06 1.08 1.07 1.07 1.09 1.10 1.07 1.01 0.96 0.91 0.90 0.93 0.92 0.89 0.91 0.96 1.04 1.14 1.28 1.41 1.28 0.93 0.79 0.75 0.75 0.73 0.79 0.68 0.61 0.72 0.69 0.68 0.71 0.74 0.77 0.76 0.77 0.86 0.94 0.98 0.99
0.96 0.96 0.96 0.95 0.97 0.97 0.96 1.00 0.99 0.96 0.94 0.86 0.81 0.83 0.85 0.84 0.88 0.91 0.95 1.01 1.09 1.18 1.20 0.95 0.75 0.70 0.70 0.66 0.64 0.57 0.52 0.51 0.50 0.60 0.61 0.62 0.63 0.63 0.68 0.73 0.79 0.84 0.88
0.77 0.82 0.82 0.80 0.78 0.79 0.80 0.83 0.84 0.84 0.85 0.83 0.77 0.74 0.74 0.75 0.79 0.81 0.87 0.90 0.91 0.93 0.96 0.87 0.69 0.62 0.58 0.53 0.49 0.45 0.41 0.40 0.37 0.46 0.47 0.47 0.49 0.51 0.52 0.56 0.63 0.69 0.73
0.60 0.64 0.67 0.67 0.66 0.63 0.62 0.65 0.68 0.68 0.67 0.71 0.72 0.72 0.71 0.74 0.80 0.82 0.83 0.80 0.77 0.76 0.77 0.76 0.62 0.51 0.46 0.44 0.44 0.40 0.34 0.31 0.28 0.32 0.35 0.35 0.37 0.40 0.44 0.47 0.49 0.53 0.55
0.51 0.54 0.57 0.59 0.60 0.61 0.61 0.62 0.64 0.68 0.70 0.71 0.74 0.79 0.81 0.81 0.80 0.79 0.80 0.79 0.78 0.78 0.75 0.75 0.70 0.59 0.51 0.44 0.44 0.41 0.37 0.32 0.29 0.27 0.32 0.35 0.38 0.40 0.40 0.39 0.37 0.36 0.37
0.50 0.51 0.55 0.57 0.61 0.64 0.69 0.73 0.76 0.84 0.91 0.95 0.95 0.93 0.92 0.94 0.91 0.85 0.80 0.79 0.80 0.83 0.86 0.87 0.80 0.66 0.53 0.46 0.42 0.38 0.39 0.39 0.38 0.35 0.35 0.33 0.33 0.32 0.32 0.33 0.33 0.33 0.34
0.55 0.53 0.57 0.62 0.67 0.73 0.90 0.92 0.85 0.87 0.96 0.96 0.93 0.88 0.84 0.84 0.81 0.82 0.79 0.77 0.81 0.90 0.98 0.98 0.86 0.67 0.47 0.39 0.39 0.46 0.53 0.63 0.58 0.39 0.38 0.36 0.32 0.32 0.30 0.29 0.33 0.35 0.38
0.66 0.68 0.71 0.77 0.83 0.89 0.95 0.88 0.87 0.79 0.80 0.78 0.75 0.73 0.70 0.67 0.69 0.64 0.70 0.79 0.83 0.89 0.87 0.79 0.69 0.56 0.49 0.44 0.54 0.68 0.68 0.66 0.51 0.35 0.41 0.46 0.39 0.38 0.34 0.34 0.40 0.40 0.41
0.84 0.90 0.94 0.97 0.98 0.99 0.93 0.79 0.72 0.65 0.65 0.64 0.63 0.63 0.61 0.59 0.59 0.62 0.69 0.77 0.70 0.65 0.63 0.59 0.56 0.54 0.53 0.53 0.64 0.77 0.75 0.70 0.56 0.47 0.48 0.58 0.46 0.41 0.36 0.36 0.40 0.41 0.43
1.02 1.00 0.98 0.92 0.86 0.82 0.76 0.64 0.57 0.50 0.50 0.51 0.50 0.52 0.56 0.53 0.59 0.74 0.79 0.75 0.60 0.52 0.55 0.61 0.63 0.60 0.61 0.62 0.64 0.78 0.90 0.94 0.80 0.55 0.47 0.54 0.48 0.44 0.43 0.38 0.37 0.41 0.42
0.92 0.86 0.79 0.73 0.65 0.58 0.56 0.51 0.47 0.41 0.40 0.39 0.39 0.41 0.48 0.51 0.64 0.76 0.67 0.61 0.55 0.50 0.52 0.53 0.52 0.52 0.50 0.52 0.59 0.68 0.97 1.25 1.03 0.73 0.45 0.58 0.59 0.63 0.74 0.45 0.38 0.40 0.44